{"data":{"norad_id":65812,"epoch":"2026-05-25T02:47:17.184768Z","epoch_age_seconds":62026,"freshness":"FRESH","line1":"1 65812U 25218X   26145.11617112  .00004623  00000+0  32413-3 0  9998","line2":"2 65812  97.4519   7.9696 0001508  57.7146 302.4227 15.05661632 36475","mean_motion":15.05661632,"eccentricity":0.0001508,"inclination_deg":97.4519,"raan_deg":7.9696,"arg_perigee_deg":57.7146,"mean_anomaly_deg":302.4227,"bstar":0.00032413,"rev_number":3647,"period_min":95.639018049973,"perigee_km":548.43079030091,"apogee_km":550.52015822315,"semimajor_km":6927.612474262,"source":"CELESTRAK","updated_at":"2026-05-25T13:38:20.940607Z"}}